Regional Weather Roundup
Issued by NWS

Home | Current Version | Previous Version | Graphics & Text | Print | Product List | Glossary On
Versions: 1 2 3 4 5 6 7 8 9 10 11 12 13 14 15 16 17 18 19 20 21 22 23 24 25 26 27 28 29 30 31 32 33 34 35 36 37 38 39 40 41 42 43 44 45 46 47 48
000
ASUS45 KBOU 260710
RWRCO

WEATHER ROUNDUP FOR COLORADO
NATIONAL WEATHER SERVICE PUEBLO CO
100 AM MDT THU APR 26 2018

NOTE: "FAIR" INDICATES FEW OR NO CLOUDS BELOW 12000 FEET WITH NO
SIGNIFICANT WEATHER AND/OR OBSTRUCTIONS TO VISIBILITY.

COZ001>005-013-030-031-260800-
...NORTHWEST COLORADO...

CITY           SKY/WX    TMP DP  RH WIND       PRES   REMARKS
CRAIG          PTCLDY    44  24  45 SW13      30.14S
HAYDEN         PTCLDY    42  22  44 W6        30.16S
MEEKER         MOCLDY    39  27  62 CALM      30.17R
RABBIT EARS PA NOT AVBL
STEAMBOAT SPGS FAIR      36  22  57 E3        30.15S
WALDEN         FAIR      43   9  24 W15       30.17R
$$

COZ006>008-011-260800-
...WEST CENTRAL VALLEYS...

CITY           SKY/WX    TMP DP  RH WIND       PRES   REMARKS
GRAND JUNCTION MOCLDY    51  12  21 E5        30.08R
MONTROSE       MOCLDY    47  16  29 SE12      30.14S
EAGLE          PTCLDY    42  15  33 E6        30.16R
RIFLE          MOCLDY    45  22  40 CALM      30.12R
DELTA          NOT AVBL
NUCLA          FAIR      48   1  14 E10       30.17F
$$

COZ017>023-064>068-260800-
...SOUTHWEST COLORADO...

CITY           SKY/WX    TMP DP  RH WIND       PRES   REMARKS
DURANGO        CLEAR     45   4  18 W9        30.13S
CORTEZ         PTCLDY    37   4  25 E8        30.15S
PAGOSA SPRINGS FAIR      35   4  27 NE3       30.17F
TELLURIDE      PTCLDY    38  10  31 SE7       30.30F
WOLF CREEK PAS PTCLDY    32   0  25 SW9       30.37F WCI  24
$$

COZ009-010-012-014-032>034-037-058>063-260800-
...CENTRAL COLORADO...

CITY           SKY/WX    TMP DP  RH WIND       PRES   REMARKS
ASPEN          CLEAR     35  17  47 S9        30.18S WCI  28
BUENA VISTA    FAIR      37  15  40 CALM      30.16S
COPPER MTN     NOT AVBL
BERTHOUD PASS  FAIR      27  18  69 NW45G54   30.22F WCI   7
COTTONWOOD PAS PTCLDY    46   0  14 NW9       30.21F
GUNNISON       MOCLDY    36  12  37 N5        30.19F
KREMMLING      CLEAR     41  27  56 CALM      30.17R
LEADVILLE      CLEAR     30   7  37 NE6       30.22F WCI  24
MONARCH PASS   PTCLDY    30   3  31 W25       30.40F WCI  16
SALIDA         FAIR      39  18  43 CALM      30.21F
SUNLIGHT       PTCLDY    32   7  34 SW9       30.33S WCI  24
WILKERSON PASS PTCLDY    34   5  29 W6        30.28F WCI  29
$$

COZ069>075-260800-
...SAN LUIS VALLEY/SANGRE DE CRISTO MOUNTAINS...

CITY           SKY/WX    TMP DP  RH WIND       PRES   REMARKS
ALAMOSA        PTCLDY    41  12  30 E6        30.13S
DEL NORTE      FAIR      39   8  27 W5        30.15S
LA VETA PASS   PTCLDY    36  12  38 SW13G20   30.33S
SAGUACHE       NOT AVBL
$$

COZ035-036-038>040-260800-
...NORTHERN COLORADO FRONT RANGE...

CITY           SKY/WX    TMP DP  RH WIND       PRES   REMARKS
DENVER INTL AP MOCLDY    50  27  40 W12       29.99S
DMNS CITY PARK NOT AVBL
AURORA         PTCLDY    49  26  41 SW15      30.00S
FRONT RANGE AP FAIR      51  27  38 S15G22    29.99S
ERIE MUNI ARPT FAIR      39  35  85 SE3       30.05R
BOULDER MUN AP FAIR      48  28  46 SE3       30.00R
CENTENNIAL     PTCLDY    46  28  49 S5        30.01S
BROOMFIELD     MOCLDY    52  23  32 W3        30.01S
LOVELAND       CLOUDY    45  28  51 CALM      29.99F
LONGMONT       FAIR      48  32  53 W6        30.00F
$$

COZ041-046-047-076>085-087-088-260800-
...PIKES PEAK/PALMER DIVIDE AND SOUTHERN FOOTHILLS...

CITY           SKY/WX    TMP DP  RH WIND       PRES   REMARKS
COLO. SPRINGS  PTCLDY    37  28  70 N9        30.07F
A. F. ACADEMY  CLEAR     32  24  72 N9        30.07F WCI  24
SCHRIEVER AFB  NOT AVBL
CHEYENNE MTN   NOT AVBL
ELLICOTT         N/A    N/A N/A N/A CALM      30.06F
FALCON         FAIR      36  24  62 W8        30.09F
FORT CARSON    CLEAR     40  27  60 N8        30.04F
LIMON          PTCLDY    40  28  62 S3        30.01F
MONUMENT HILL  PTCLDY    41  23  48 S10       30.09S
CANON CITY     FAIR      43  32  65 NW9       30.04F
WALSENBURG     FAIR      39  28  65 CALM      30.05S
TRINIDAD       CLEAR     46  28  49 W12       30.02F
$$

COZ042>045-048>051-090-091-260800-
...NORTHEAST COLORADO...

CITY           SKY/WX    TMP DP  RH WIND       PRES   REMARKS
GREELEY ARPT   MOCLDY    37  26  64 N20G26    30.01R
AKRON          PTCLDY    48  32  53 SW17      29.95F
BURLINGTON     PTCLDY    38  32  79 SW9       29.99F
WRAY           FAIR      43  32  65 SW9       29.96F
YUMA           NOT AVBL
STERLING       NOT AVBL
HOLYOKE        FAIR      41  34  75 SW6       29.94F
FORT MORGAN    FAIR      41  26  53 W6        29.96F
$$

COZ086-089-092>099-260800-
...SOUTHEAST COLORADO...

CITY           SKY/WX    TMP DP  RH WIND       PRES   REMARKS
PUEBLO         CLEAR     41  31  67 N10       30.01F
LA JUNTA       CLEAR     42  32  67 N3        29.99F
LAMAR          CLEAR     37  31  78 MISG      29.99F
SPRINGFIELD      N/A     33  29  85 SW9       30.03F WCI  25
$$





USA.gov is the U.S. government's official web portal to all federal, state and local government web resources and services.